星链-3452 (STARLINK-3452 )

导读

STARLINK-3452是美国SpaceX公司星链(Starlink)星座中的一颗卫星,于2022年2月21日发射入轨,属于星链项目中低轨卫星互联网部署的一环,承担着为全球提供高速互联网接入服务的任务,是Starlink大规模星座组网进程中的组成单元,依托低轨部署实现更低时延的网络传输服务。

基本信息
目录编号:
51744
目录名称:
STARLINK-3452
国际标识:
2022-016AG
轨道中心:
EARTH
卫星名称:
星链-3452
卫星全名:
星链-3452 (STARLINK-3452 )
卫星状态:
在轨 (已飞行1656 天)
发射日期:
2022-02-21 UTC
国别 :
美国 (US)
星等 :
--
轨道信息
数据来源 国际轨道数据 AOE轨道数据
星历时间 2026-09-02T14:04:38+0800
1天前
查看轨道信息
2026-09-03T23:00:00+0800
11小时前
查看轨道信息
半长轴 6843.373km 6843.369km
偏心率 0.0001168 0.0001425
轨道倾角 53.159° 53.156°
近地点辐角 86.526° 98.677°
升交点赤经 235.121° 228.716°
平近点角 273.587° 279.022°
近地点 464.436km 464.256km
远地点 466.036km 466.208km
周期 93.900分钟 93.900分钟
每日圈数 15.335485 15.335496
详细信息
固有亮度:
5
最大亮度:
2.5
卫星平台:
Starlink v1.5
覆盖范围:
全球
运营商:
太空探索技术公司
运营商所在国:
美国
制造商(研发单位):
太空探索技术公司
制造商所在国:
美国
使用方式:
暂无
卫星简介
星链(Starlink)计划是由太空探索技术公司(SpaceX)提出的一个巨型低轨卫星互联网星座项目,计划在2019年至2024年间在太空搭建由约1.2万颗卫星组成的“星链”网络,其中1584颗将部署在地球上空550千米处的近地轨道,并从2020年开始工作。该卫星仍在工作。
2D轨道图
3D轨道图
轨道高度分析图
轨道倾角分析图
轨道综合分析图
查看轨道综合分析图
交会数据列表
事件ID 空间交会对象 最接近时刻(TCA) 交会距离 交会风险概率(CRP) 交会风险指数(CRI) 操作
CDM_260903-140505-174406-470722
2026-09-03T
14:05:36+0000
1.324 km
极远距离
2.963611E-6 低风险 0.44
CDM_260904-210005-174406-518922
2026-09-04T
21:00:59+0000
2.173 km
极远距离
2.085407E-6 低风险 0.41
CDM_260902-191105-174406-172822
2026-09-02T
19:11:25+0000
2.139 km
极远距离
1.996721E-6 低风险 0.41
CDM_260904-015204-975805-174422
2026-09-04T
01:52:15+0000
2.677 km
极远距离
1.400105E-6 低风险 0.38
CDM_260904-033405-174405-305321
2026-09-04T
03:34:02+0000
2.988 km
极远距离
1.338066E-6 低风险 0.38
CDM_260904-083705-174405-853221
2026-09-04T
08:37:15+0000
2.486 km
极远距离
1.156848E-6 低风险 0.36
CDM_260903-020405-174405-878122
2026-09-03T
02:04:10+0000
2.652 km
极远距离
7.533118E-7 极低风险 0.33
CDM_260901-043805-174406-014422
2026-09-01T
04:38:10+0000
2.656 km
极远距离
5.241004E-7 极低风险 0.29